Flag for Turkey Weather past 2 weeks in Bursa, Turkey

Now
38 °F

Sunny.


Feels Like: 38 °F
Forecast: 51 / 61 °F
Wind: 2 mph from North

Location: Bursa

Current Time: Jan 30, 2015 at 8:41:32 AM

Latest Report: Jan 30, 2015 at 8:00 AM


Visibility: 9 mi

Pressure: 29.76 "Hg

Humidity: 99%

Dew point: 38 °F

Location of BursaLocation

Historic Weather in Bursa — Graph

°F

Bursa temperature yesterday

Maximum temperature yesterday: 51 °F (at 3:00 PM)
Minimum temperature yesterday: 41 °F (at 5:00 AM)
Average temperature yesterday: 45 °F

Past Weeks' High & Low Weather Summary

 TemperatureHumidityPressure
High63 °F (Jan 25, 4:00 PM)100% (Jan 16, 2:00 AM)30.42 "Hg (Jan 16, 2:00 AM)
Low28 °F (Jan 17, 8:00 AM)38% (Jan 25, 4:00 PM)29.74 "Hg (Jan 30, 5:00 AM)
Average47 °F75%30.07 "Hg
* Reported Jan 15 8:00 AM — Jan 30 7:00 AM, Bursa, Weather by CustomWeather, © 2014

Note: Actual official high and low records may vary slightly from our data, if they occured in-between our weather recording intervals... More about our weather records

Advertising

Bursa weather history for previous 24 hours

 ConditionsComfort  
Time TempWeatherWind HumidityBarometerVisibility
7:00 AM
Jan 30
38 °FClear.1 mph99%29.76 "Hg7 mi
6:00 AM37 °FClear.1 mph99%29.75 "Hg6 mi
5:00 AM40 °FClear.2 mph99%29.74 "Hg6 mi
4:00 AM40 °FClear.1 mph100%29.74 "Hg6 mi
3:00 AM41 °FClear.3 mph99%29.76 "Hg6 mi
2:00 AM39 °FClear.2 mph99%29.76 "Hg6 mi
1:00 AM42 °FClear.1 mph100%29.77 "Hg6 mi
12:00 AM42 °FClear.2 mph99%29.78 "Hg6 mi
11:00 PM
Jan 29
45 °FPassing clouds.2 mph99%29.79 "Hg6 mi
10:00 PM45 °FPassing clouds.2 mph99%29.80 "Hg6 mi
9:00 PM46 °FPassing clouds.1 mph97%29.80 "Hg6 mi
8:00 PM46 °FPassing clouds.7 mph98%29.80 "Hg6 mi
7:00 PM46 °FSprinkles. Overcast.7 mph94%29.80 "Hg5 mi
6:00 PM49 °FPassing clouds.3 mph81%29.78 "Hg6 mi
5:00 PM50 °FOvercast.2 mph77%29.78 "Hg6 mi
4:00 PM51 °FSprinkles. Overcast.5 mph75%29.79 "Hg5 mi
3:00 PM51 °FSprinkles. Overcast.5 mph70%29.79 "Hg5 mi
2:00 PM51 °FPartly sunny.5 mph67%29.80 "Hg7 mi
1:00 PM51 °FPartly sunny.8 mph69%29.82 "Hg9 mi
12:00 PM48 °FPartly sunny.10 mph76%29.85 "Hg9 mi
11:00 AM47 °FPartly sunny.12 mph77%29.87 "Hg9 mi
10:00 AM45 °FPartly sunny.13 mph82%29.88 "Hg9 mi
9:00 AM43 °FPartly sunny.9 mph86%29.89 "Hg9 mi
8:00 AM42 °FScattered clouds.6 mph92%29.90 "Hg6 mi
Weather by CustomWeather, © 2014

See weather overviewHow to use our weather pages